Regional Weather Roundup
Issued by NWS

Home | Current Version | Previous Version | Graphics & Text | Print | Product List | Glossary On
Versions: 1 2 3 4 5 6 7 8 9 10 11 12 13 14 15 16 17 18 19 20 21 22 23 24 25 26 27 28 29 30 31 32 33 34 35 36 37 38 39 40 41 42 43 44 45 46 47 48 49 50
000
ASUS43 KFSD 020710
RWRSD

WEATHER ROUNDUP FOR SOUTH DAKOTA
NATIONAL WEATHER SERVICE SIOUX FALLS SD
200 AM CDT THU OCT 02 2014

NOTE: "FAIR" INDICATES FEW OR NO CLOUDS BELOW 12,000 FEET WITH NO
SIGNIFICANT WEATHER AND/OR OBSTRUCTIONS TO VISIBILITY.


SDZ001>005-009-010-012>017-020800-
NORTHWEST AND NORTH CENTRAL SOUTH DAKOTA

CITY           SKY/WX    TMP DP  RH WIND       PRES   REMARKS
BUFFALO          N/A     41  36  82 NW8       29.88F
FAITH            N/A     46  42  86 W6        29.94R
MOBRIDGE       CLOUDY    52  48  86 NW6       29.88S
$$

SDZ012>016-024>037-041>051-057-063-072>074-020800-
SOUTHWEST AND SOUTH CENTRAL SOUTH DAKOTA

CITY           SKY/WX    TMP DP  RH WIND       PRES   REMARKS
RAPID CTY ARPT PTCLDY    41  39  93 CALM      29.99R
PIERRE         CLOUDY    53  49  86 SW6       29.92R
CUSTER         PTCLDY    38  33  82 W7        30.02S
ELLSWORTH AFB  PTCLDY    44  38  82 W5        29.98S
PHILIP         CLOUDY    51  47  86 W5        29.96S
PINE RIDGE     MOCLDY    47  46  97 W6        30.00S
WINNER         LGT RAIN  53  49  86 W8        29.95R
$$

SDZ004>011-016>023-039-040-020800-
NORTHEAST SOUTH DAKOTA

CITY           SKY/WX    TMP DP  RH WIND       PRES   REMARKS
ABERDEEN       CLOUDY    48  46  93 CALM      29.87F
WATERTOWN      CLEAR     49  47  93 NW5       29.87R
SISSETON         N/A     52  49  89 W5        29.84S
$$

SDZ017-020-022-023-036>040-048>070-020800-
SOUTHEAST SOUTH DAKOTA

CITY           SKY/WX    TMP DP  RH WIND       PRES   REMARKS
SIOUX FALLS    CLEAR     53  49  86 NE6       29.84F
HURON          CLOUDY    47  45  93 W3        29.89R
CHAMBERLAIN    DRIZZLE   53  47  82 NW3       29.92R
MITCHELL       MOCLDY    52  47  83 NW7       29.89R
YANKTON        PTCLDY    55  50  82 N10       29.83R
$$

ABBREVIATIONS USED IN REMARKS
   TC - TEMPERATURE IN CELSIUS
  WCI - WIND CHILL INDEX
   HX - HEAT INDEX
  VSB - VISIBILITY



USA.gov is the U.S. government's official web portal to all federal, state and local government web resources and services.